QZS-2 (MICHIBIKI-2)

Last updated on Wed Aug 12 2026 00:03:03 GMT+0000 (Coordinated Universal Time)

1 42738U 17028A 26221.90379302 -.00000103 00000+0 00000+0 0 9991 2 42738 39.3504 242.3610 0754942 269.9453 273.8923 1.00270190 8166
UTC large
Height (km)
Speed (km/s)
/
Latitude / Longitude
Inclination (degrees)
Orbital Period (minutes)
Azimuth
Elevation
Range (km)
Doppler Factor

Next 0 passes for location: London (51.5072 / 0.1276)

No passes found over London.
QZS-2 (MICHIBIKI-2)